TimePDT,TemperatureF,Dew PointF,Humidity,Sea Level PressureIn,VisibilityMPH,Wind Direction,Wind SpeedMPH,Gust SpeedMPH,PrecipitationIn,Events,Conditions,WindDirDegrees,DateUTC
12:56 AM,57.0,55.0,93,29.91,6.0,SW,3.5,-,0.00,Rain,Light Rain,220,2013-08-24 07:56:00
1:56 AM,57.0,55.9,96,29.92,6.0,SSW,3.5,-,0.03,Rain,Light Rain,200,2013-08-24 08:56:00
2:56 AM,57.9,57.0,97,29.92,5.0,Calm,Calm,-,0.00,Rain,Light Rain,0,2013-08-24 09:56:00
3:56 AM,57.9,57.0,97,29.91,10.0,East,4.6,-,0.00,Rain,Light Rain,90,2013-08-24 10:56:00
4:56 AM,57.9,57.0,97,29.91,6.0,East,4.6,-,0.00,,Overcast,90,2013-08-24 11:56:00
5:24 AM,57.2,57.2,100,29.89,6.0,Calm,Calm,-,N/A,,Overcast,0,2013-08-24 12:24:00
5:56 AM,57.9,57.0,97,29.91,6.0,ENE,3.5,-,N/A,,Overcast,70,2013-08-24 12:56:00
6:36 AM,59.0,57.2,94,29.90,6.0,ENE,3.5,-,0.00,Rain,Light Rain,70,2013-08-24 13:36:00
6:45 AM,59.0,57.2,94,29.90,6.0,ENE,3.5,-,0.00,,Overcast,70,2013-08-24 13:45:00
6:56 AM,57.9,57.0,97,29.91,6.0,ENE,3.5,-,0.00,,Overcast,70,2013-08-24 13:56:00
7:56 AM,60.1,57.9,93,29.92,10.0,East,3.5,-,N/A,,Overcast,90,2013-08-24 14:56:00
8:56 AM,59.0,57.9,96,29.93,6.0,SW,3.5,-,N/A,,Mostly Cloudy,230,2013-08-24 15:56:00
9:56 AM,60.1,57.9,93,29.93,10.0,WNW,3.5,-,N/A,,Mostly Cloudy,300,2013-08-24 16:56:00
10:56 AM,61.0,57.9,90,29.94,10.0,WSW,6.9,-,N/A,,Overcast,240,2013-08-24 17:56:00
11:56 AM,64.0,57.9,80,29.94,10.0,West,5.8,-,N/A,,Overcast,270,2013-08-24 18:56:00
12:56 PM,61.0,55.0,81,29.93,10.0,WSW,6.9,-,N/A,,Mostly Cloudy,250,2013-08-24 19:56:00
1:56 PM,64.0,55.0,73,29.93,10.0,WSW,4.6,-,N/A,,Mostly Cloudy,250,2013-08-24 20:56:00
2:56 PM,62.1,55.0,78,29.92,10.0,NW,4.6,-,N/A,,Mostly Cloudy,320,2013-08-24 21:56:00
3:56 PM,60.1,54.0,80,29.92,10.0,WNW,6.9,-,N/A,,Mostly Cloudy,300,2013-08-24 22:56:00
4:56 PM,62.1,53.1,72,29.92,10.0,West,6.9,-,N/A,,Mostly Cloudy,280,2013-08-24 23:56:00
5:56 PM,59.0,53.1,81,29.91,10.0,West,6.9,-,N/A,,Mostly Cloudy,270,2013-08-25 00:56:00
6:56 PM,57.0,52.0,83,29.91,10.0,West,5.8,-,N/A,,Mostly Cloudy,280,2013-08-25 01:56:00
7:56 PM,55.9,52.0,87,29.91,10.0,West,6.9,-,N/A,,Mostly Cloudy,270,2013-08-25 02:56:00
8:56 PM,54.0,52.0,93,29.93,10.0,WSW,4.6,-,N/A,,Mostly Cloudy,240,2013-08-25 03:56:00
9:56 PM,55.0,52.0,89,29.94,10.0,WNW,4.6,-,N/A,,Mostly Cloudy,290,2013-08-25 04:56:00
10:56 PM,54.0,51.1,90,29.94,10.0,SW,4.6,-,N/A,,Scattered Clouds,220,2013-08-25 05:56:00
11:56 PM,55.0,52.0,89,29.95,10.0,SSE,4.6,-,N/A,,Mostly Cloudy,150,2013-08-25 06:56:00